Weather Roundup
Issued by NWS Springfield, MO

Home | Current Version | Previous Version | Text Only | Print | Product List | Glossary On
Versions: 1 2 3 4 5 6 7 8 9 10 11 12 13 14 15 16 17 18 19 20 21 22 23 24 25 26 27 28 29 30 31 32 33 34 35 36 37 38 39 40 41 42 43 44 45 46 47 48 49 50
021
NZUS99 KSGF 030107
HRRSGF

HOURLY WEATHER
NATIONAL WEATHER SERVICE SPRINGFIELD MO
700 PM CST FRI DEC 02 2016

......SGF CWA......

CITY           SKY/WX    TMP DP  RH WIND       PRES   REMARKS
SPRINGFIELD    CLOUDY    49  24  37 NE8       30.26R
JOPLIN         MOCLDY    50  27  40 E9        30.24F
WEST PLAINS    PTCLDY    41  30  65 CALM      30.30R
ROLLA          PTCLDY    33  25  72 CALM      30.29R
OSAGE BEACH    CLOUDY    42  25  50 NE6       30.31R
BRANSON        CLOUDY    46  32  57 E6        30.25S

......SURROUNDING SGF CWA......

CITY           SKY/WX    TMP DP  RH WIND       PRES   REMARKS
CHANUTE        CLEAR     46  26  45 NE10      30.25F
PARSONS        PTCLDY    45  26  47 NE6       30.24F
COFFEYVILLE    CLOUDY    47  27  45 NE12      30.22F
EMPORIA        CLEAR     39  24  55 NE8       30.28R WCI  33
GROVE OK       PTCLDY    52  34  50 NE3       30.22R
ROGERS AR      CLOUDY    53  32  44 E9        30.22S
SILOAM SPRINGS MOCLDY    54  32  43 E5        30.20S
HARRISON AR    CLOUDY    49  30  48 E5        30.24F
NEAR YELLVILLE PTCLDY    50  28  43 NE3       30.24S

......KANSAS AND MISSOURI......

CITY           SKY/WX    TMP DP  RH WIND       PRES   REMARKS
KANSAS CTY INT PTCLDY    38  24  57 NE6       30.31R WCI  33
DOWNTOWN KC    CLEAR     42  28  57 CALM      30.32R
COLUMBIA       CLEAR     40  27  59 N6        30.31R
SEDALIA        CLEAR     42  26  53 CALM      30.33R
ST JOSEPH      CLEAR     30  24  78 N5        30.33R WCI  25
ST LOUIS       PTCLDY    39  27  62 CALM      30.33R
SPIRIT OF STL  CLEAR     32  29  88 CALM      30.33R
KIRKSVILLE     CLEAR     32  27  81 N3        30.33R
WICHITA        PTCLDY    45  22  40 NE12      30.23S
TOPEKA         CLEAR     37  26  64 NE3       30.31R
OLATHE         CLEAR     41  26  55 N5        30.31R

......TENNESSEE......

CITY           SKY/WX    TMP DP  RH WIND       PRES   REMARKS
MEMPHIS        MOCLDY    51  35  54 CALM      30.28R
NASHVILLE      PTCLDY    49  26  41 N6        30.29S

......ARKANSAS.......

CITY           SKY/WX    TMP DP  RH WIND       PRES   REMARKS
FAYETTEVILLE   CLOUDY    53  32  44 NE3       30.21S
FT SMITH       PTCLDY    52  34  50 CALM      30.19F
LITTLE ROCK    MOCLDY    48  37  65 CALM      30.25S

......OKLAHOMA.......

CITY           SKY/WX    TMP DP  RH WIND       PRES   REMARKS
TULSA          MOCLDY    53  38  56 NE6       30.17S
PONCA CITY     PTCLDY    50  26  39 NE13      30.19R
MCALESTER      CLOUDY    56  40  55 E3        30.17R
OKLAHOMA CITY  CLOUDY    54  40  59 E8        30.13S

......IOWA............

CITY           SKY/WX    TMP DP  RH WIND       PRES   REMARKS
DES MOINES     CLOUDY    38  33  82 N5        30.33R WCI  34
QUAD CITIES    CLOUDY    37  25  61 NW8       30.31S WCI  31

......ILLINOIS........

CITY           SKY/WX    TMP DP  RH WIND       PRES   REMARKS
QUINCY         CLOUDY    39  31  72 CALM      30.32R
CHICAGO        CLOUDY    36  25  64 N8        30.28R WCI  30




USA.gov is the U.S. government's official web portal to all federal, state and local government web resources and services.